Weather History for Warrenton, VA

Change the Weather History Date:

Tuesday, February 12, 2013

  Actual Average (KHEF) Record (KHEF)
Temperature  
Mean Temperature 48 °F -  
Max Temperature 61 °F 45 °F 75 °F (1999)
Min Temperature 35 °F 24 °F 14 °F (2007)
Degree Days  
Heating Degree Days 17    
Moisture  
Dew Point 33 °F    
Average Humidity 55    
Maximum Humidity 87    
Minimum Humidity 36    
Precipitation  
Precipitation 0.00 in - - ()
Sea Level Pressure  
Sea Level Pressure 29.91 in    
Wind  
Wind Speed 6 mph (West)    
Max Wind Speed 23 mph    
Max Gust Speed 29 mph    
Visibility 10 miles    
Events      
Averages and records for this station are not official NWS values.
T = Trace of Precipitation, MM = Missing Value Source: NWS Daily Summary

Daily Weather History Graph

Daily Weather History Graph

Search for Another Location

Airport:

Trip Planner

Search our weather history database for the weather conditions in past years. The results will help you decide how hot, cold, wet, or windy it might be!

Date:

Astronomy

Feb. 12, 2013 Rise Set
Actual Time 7:04 AM EST 5:45 PM EST
Civil Twilight 6:37 AM EST 6:13 PM EST
Nautical Twilight 6:06 AM EST 6:44 PM EST
Astronomical Twilight 5:35 AM EST 7:15 PM EST
Moon 8:03 AM EST (2/12) 8:41 PM EST (2/12)
Length of Visible Light 11h 35m
Length of Day
10h 40m
Waxing Crescent, 7% of the Moon is Illuminated
Feb 12
Waxing Crescent
Feb 17
First Quarter
Feb 25
Full
Mar 4
Last Quarter
Mar 11
New

Hourly Weather History & Observations

Time (EST) Temp. Windchill Dew Point Humidity Pressure Visibility Wind Dir Wind Speed Gust Speed Precip Events Conditions
12:15 AM 48.0 °F - 34.0 °F 58% 29.82 in 10.0 mi South 3.5 mph - N/A   Clear
12:35 AM 53.4 °F - 31.5 °F 43% 29.83 in 10.0 mi West 8.1 mph - N/A   Clear
12:55 AM 53.6 °F - 31.8 °F 44% 29.83 in 10.0 mi West 4.6 mph - N/A   Clear
1:15 AM 53.2 °F - 31.1 °F 43% 29.83 in 10.0 mi West 5.8 mph - N/A   Clear
1:35 AM 52.2 °F - 32.0 °F 46% 29.85 in 10.0 mi West 5.8 mph 18.4 mph N/A   Clear
1:55 AM 51.6 °F - 32.7 °F 49% 29.85 in 10.0 mi West 11.5 mph 16.1 mph N/A   Clear
2:15 AM 50.5 °F - 33.8 °F 53% 29.87 in 10.0 mi West 15.0 mph 20.7 mph N/A   Clear
2:35 AM 49.6 °F - 33.8 °F 54% 29.86 in 10.0 mi WNW 12.7 mph 17.3 mph N/A   Clear
2:55 AM 49.1 °F - 33.6 °F 55% 29.86 in 10.0 mi WNW 9.2 mph - N/A   Clear
3:15 AM 48.6 °F - 33.4 °F 56% 29.87 in 10.0 mi WNW 10.4 mph 19.6 mph N/A   Clear
3:35 AM 49.1 °F - 33.1 °F 54% 29.88 in 10.0 mi West 13.8 mph 18.4 mph N/A   Clear
3:55 AM 49.5 °F - 33.1 °F 53% 29.88 in 10.0 mi West 17.3 mph 28.8 mph N/A   Clear
4:15 AM 49.1 °F - 33.4 °F 55% 29.86 in 10.0 mi WNW 21.9 mph 25.3 mph N/A   Clear
4:35 AM 48.6 °F - 33.6 °F 56% 29.87 in 10.0 mi WNW 23.0 mph - N/A   Clear
4:55 AM 49.1 °F - 33.4 °F 55% 29.88 in 10.0 mi WNW 17.3 mph 27.6 mph N/A   Clear
5:15 AM 48.2 °F - 33.4 °F 57% 29.87 in 10.0 mi West 16.1 mph - N/A   Clear
5:35 AM 48.0 °F - 33.1 °F 56% 29.88 in 10.0 mi WNW 12.7 mph - N/A   Clear
5:55 AM 47.5 °F - 32.7 °F 57% 29.91 in 10.0 mi West 4.6 mph - N/A   Clear
6:15 AM 47.7 °F - 32.2 °F 55% 29.91 in 10.0 mi West 6.9 mph - N/A   Clear
6:35 AM 46.4 °F 42.9 °F 32.0 °F 57% 29.91 in 10.0 mi WNW 6.9 mph - N/A   Clear
6:55 AM 44.1 °F - 31.8 °F 62% 29.93 in 10.0 mi Calm Calm - N/A   Clear
7:15 AM 37.8 °F - 31.6 °F 79% 29.93 in 10.0 mi Calm Calm - N/A   Clear
7:35 AM 36.7 °F - 31.8 °F 83% 29.94 in 10.0 mi Calm Calm - N/A   Clear
7:55 AM 35.4 °F - 32.0 °F 87% 29.95 in 10.0 mi Calm Calm - N/A   Clear
8:15 AM 37.6 °F - 32.2 °F 81% 29.95 in 10.0 mi Calm Calm - N/A   Clear
8:35 AM 37.2 °F - 32.5 °F 83% 29.95 in 10.0 mi Calm Calm - N/A   Clear
8:55 AM 46.9 °F - 35.1 °F 63% 29.95 in 10.0 mi Calm Calm - N/A   Clear
9:15 AM 50.9 °F - 33.6 °F 52% 29.97 in 10.0 mi Calm Calm - N/A   Clear
9:35 AM 52.5 °F - 33.6 °F 49% 29.98 in 10.0 mi Calm Calm - N/A   Clear
9:55 AM 53.6 °F - 32.7 °F 45% 29.98 in 10.0 mi SW 8.1 mph - N/A   Clear
10:15 AM 54.5 °F - 33.6 °F 45% 29.98 in 10.0 mi WSW 4.6 mph - N/A   Clear
10:35 AM 55.2 °F - 32.7 °F 43% 29.98 in 10.0 mi West 4.6 mph - N/A   Clear
10:55 AM 55.6 °F - 32.9 °F 42% 29.98 in 10.0 mi SSW 4.6 mph - N/A   Clear
11:15 AM 55.4 °F - 32.5 °F 42% 29.98 in 10.0 mi SE 3.5 mph - N/A   Clear
11:35 AM 56.8 °F - 33.3 °F 41% 29.98 in 10.0 mi NNW 5.8 mph - N/A   Clear
11:55 AM 57.7 °F - 33.4 °F 40% 29.97 in 10.0 mi NW 5.8 mph - N/A   Clear
12:15 PM 58.5 °F - 33.3 °F 39% 29.97 in 10.0 mi NNW 10.4 mph - N/A   Clear
12:35 PM 60.4 °F - 34.9 °F 38% 29.96 in 10.0 mi West 4.6 mph - N/A   Clear
12:55 PM 60.1 °F - 34.5 °F 38% 29.95 in 10.0 mi WNW 6.9 mph - N/A   Clear
1:15 PM 60.8 °F - 33.3 °F 36% 29.93 in 10.0 mi West 4.6 mph - N/A   Clear
1:35 PM 61.0 °F - 33.4 °F 36% 29.91 in 10.0 mi North 3.5 mph - N/A   Clear
1:55 PM 61.0 °F - 34.5 °F 37% 29.90 in 10.0 mi SSW 5.8 mph - N/A   Clear
2:15 PM 60.1 °F - 33.3 °F 36% 29.88 in 10.0 mi Calm Calm - N/A   Clear
2:35 PM 59.7 °F - 32.5 °F 36% 29.82 in 10.0 mi Calm Calm - N/A   Clear
2:55 PM 61.0 °F - 34.3 °F 37% 29.88 in 10.0 mi SSW 6.9 mph - N/A   Clear
3:15 PM 61.0 °F - 35.2 °F 38% 29.92 in 10.0 mi WSW 6.9 mph - N/A   Clear
3:35 PM 61.0 °F - 35.1 °F 38% 29.91 in 10.0 mi SW 4.6 mph - N/A   Clear
3:55 PM 60.6 °F - 34.2 °F 37% 29.92 in 10.0 mi SSW 5.8 mph - N/A   Clear
4:15 PM 60.8 °F - 34.0 °F 37% 29.92 in 10.0 mi SW 3.5 mph - N/A   Clear
4:35 PM 60.1 °F - 34.0 °F 38% 29.90 in 10.0 mi SSW 4.6 mph - N/A   Clear
4:55 PM 59.0 °F - 32.9 °F 37% 29.91 in 10.0 mi SSW 8.1 mph - N/A   Clear
5:15 PM 56.8 °F - 33.3 °F 41% 29.92 in 10.0 mi SSW 4.6 mph - N/A   Clear
5:35 PM 56.1 °F - 33.1 °F 42% 29.93 in 10.0 mi SSW 6.9 mph - N/A   Clear
5:55 PM 54.9 °F - 33.1 °F 44% 29.93 in 10.0 mi Calm Calm - N/A   Clear
6:15 PM 53.4 °F - 32.7 °F 45% 29.93 in 10.0 mi Calm Calm - N/A   Clear
6:35 PM 49.6 °F - 33.1 °F 53% 29.93 in 10.0 mi Calm Calm - N/A   Clear
6:55 PM 45.5 °F - 33.8 °F 64% 29.93 in 10.0 mi Calm Calm - N/A   Clear
7:15 PM 45.7 °F 44.4 °F 34.7 °F 65% 29.93 in 10.0 mi NNE 3.5 mph - N/A   Clear
7:35 PM 45.9 °F - 34.7 °F 65% 29.92 in 10.0 mi Calm Calm - N/A   Clear
7:55 PM 44.2 °F 42.7 °F 33.6 °F 66% 29.91 in 10.0 mi NNE 3.5 mph - N/A   Clear
8:15 PM 46.6 °F - 34.9 °F 64% 29.91 in 10.0 mi NNE 5.8 mph - N/A   Clear
8:35 PM 46.4 °F 43.5 °F 34.2 °F 62% 29.90 in 10.0 mi NE 5.8 mph - N/A   Clear
9:15 PM 40.5 °F - 34.5 °F 79% 29.92 in 10.0 mi Calm Calm - N/A   Clear
9:35 PM 39.9 °F - 34.5 °F 81% 29.93 in 10.0 mi Calm Calm - N/A   Clear
9:55 PM 39.7 °F - 34.9 °F 83% 29.94 in 10.0 mi Calm Calm - N/A   Clear
10:15 PM 42.4 °F 40.7 °F 35.4 °F 76% 29.94 in 10.0 mi NNE 3.5 mph - N/A   Clear
10:35 PM 43.3 °F 40.7 °F 34.7 °F 72% 29.93 in 10.0 mi NNE 4.6 mph - N/A   Clear
10:55 PM 43.3 °F 41.7 °F 35.1 °F 73% 29.92 in 10.0 mi NE 3.5 mph - N/A   Clear
11:15 PM 39.4 °F - 35.4 °F 86% 29.92 in 10.0 mi Calm Calm - N/A   Clear
11:35 PM 39.0 °F - 34.5 °F 84% 29.92 in 10.0 mi Calm Calm - N/A   Clear
11:55 PM 38.1 °F - 33.8 °F 84% 29.92 in 10.0 mi Calm Calm - N/A   Clear